Location: Seattle
(47.6064°N, 122.3308°W)
Time: 00:57:42
(UTC-08:00)

Tiros 1 - Pass Details

Date: 27 November 2020
Orbit: 630 x 663 km, 48.4° (Epoch: 28 January)

Event Time Altitude Azimuth Distance (km) Brightness Sun altitude
Rises 21:13:35 0° 286° (WNW) 2,981 11.2 -48.0°
Enters shadow 21:14:02 - 285° (WNW) 2,809 11.1 -48.1°
Reaches altitude 10° 21:16:02 10° 280° (W) 2,062 - -48.4°
Maximum altitude 21:20:30 42° 210° (SSW) 933 - -49.1°
Drops below altitude 10° 21:24:54 10° 140° (SE) 2,034 - -49.8°
Sets 21:27:19 0° 134° (SE) 2,935 - -50.1°
